Lapse_Rate
1.8 2.6 0.5 1.2 2.0 2.3 2.3 2.2 2.2 2.2 2.5 2.9 2.9 2.8 2.9 3.4 3.7 3.8 4.0 4.4 4.7 5.1 5.4 5.4 5.6 5.6 5.7 5.7 5.5 5.4 5.4 5.4 5.7 5.7 5.6 5.6 5.6 5.3 5.4 5.1 5.7 6.7 5.3
1.5 2.1 0.3 1.2 1.8 2.0 2.3 2.2 2.2 2.3 2.4 2.7 2.8 2.9 3.1 3.3 3.5 3.7 3.9 4.2 4.7 5.3 5.3 5.5 5.5 5.5 5.5 5.2 5.2 5.1 5.1 5.2 5.8 6.2 5.6 5.5 5.3 5.7 5.2 5.1 6.0 5.7 5.4
1.6 1.3 1.2 1.0 1.8 2.1 2.3 2.4 2.5 2.5 2.4 2.6 2.7 3.0 3.2 3.3 3.5 3.5 3.7 4.1 4.8 5.1 5.5 5.4 5.5 5.6 5.3 5.0 4.8 4.7 4.8 5.0 5.2 5.4 5.8 8.1 7.1 5.7 5.3 5.1 5.5 5.3 5.4
1.8 1.4 1.8 0.8 1.8 2.2 2.3 2.5 2.7 2.9 2.6 2.5 2.9 3.1 3.2 3.2 3.2 3.5 3.5 4.0 4.5 5.0 5.2 5.4 5.6 5.4 4.8 4.7 4.6 4.5 4.6 4.8 4.9 5.1 6.8 7.4 6.8 5.5 5.5 5.5 5.5 5.6 5.5
2.5 1.8 1.6 0.8 1.7 2.2 2.3 2.6 2.8 2.9 2.9 2.8 3.0 3.4 3.4 3.2 3.2 3.4 3.5 3.8 4.4 4.8 5.3 5.4 5.4 4.7 4.5 4.3 4.1 4.2 4.4 4.4 4.7 6.3 7.3 6.2 7.6 6.1 5.9 5.8 5.6 5.4 6.2
2.5 2.4 -0.1 0.5 1.5 2.0 2.4 2.8 2.8 2.8 2.9 3.0 3.2 3.4 3.6 3.4 3.3 3.3 3.5 3.9 4.5 4.8 5.3 5.5 4.5 4.2 4.1 4.0 3.9 4.1 4.1 4.3 5.3 7.3 7.1 6.7 7.4 6.0 5.8 5.6 5.6 5.4 5.3
2.0 1.9 1.2 0.5 1.3 2.1 2.5 2.8 2.9 2.9 2.9 2.9 3.1 3.3 3.6 3.6 3.3 3.2 3.6 4.2 4.7 4.9 5.0 4.6 3.8 3.9 3.7 3.7 3.9 3.9 4.3 4.5 6.6 6.7 7.2 7.1 6.6 6.2 6.6 6.1 5.5 5.3 5.4
1.6 1.5 1.8 1.0 1.3 2.0 2.5 2.6 2.8 2.9 2.9 2.9 3.1 3.3 3.5 3.5 3.3 3.3 3.6 4.2 4.6 4.6 4.3 3.8 3.7 3.5 3.4 3.6 3.9 4.2 4.4 5.0 6.2 7.0 6.9 6.9 6.9 7.1 6.5 6.7 6.3 6.0 5.8
1.2 1.6 1.9 2.5 2.4 1.9 2.2 2.3 2.5 2.7 2.8 2.9 3.0 3.1 3.4 3.4 3.4 3.5 3.7 4.1 4.5 4.1 4.0 3.8 3.5 3.2 3.2 3.4 4.0 4.4 4.7 4.8 6.8 6.6 6.6 6.9 5.6 5.2 4.7 5.3 6.5 6.5 6.2
1.3 1.8 1.8 2.1 2.8 3.2 3.0 2.1 2.3 2.6 2.7 2.8 2.9 3.1 3.3 3.6 3.7 3.8 3.9 4.2 4.5 4.2 3.9 3.9 3.4 3.1 3.2 3.7 4.2 4.5 4.7 4.7 7.3 7.3 7.1 6.7 6.1 5.9 5.8 5.3 5.1 6.5 6.7
1.1 2.2 2.2 2.1 2.4 2.6 2.8 2.7 2.2 2.5 2.7 2.6 2.9 3.0 3.5 5.2 5.1 4.8 5.2 4.3 4.5 4.2 4.0 4.0 3.6 3.3 3.5 3.6 4.0 4.5 4.7 6.7 6.8 7.1 7.0 5.2 5.8 5.9 5.1 4.0 5.4 5.9 6.2
1.3 1.2 2.3 2.6 2.6 2.7 2.8 2.8 3.5 3.8 4.0 3.9 4.0 3.8 4.6 4.8 5.2 5.6 5.1 4.5 4.5 4.4 4.2 4.0 3.8 2.9 2.8 3.7 4.1 3.7 5.9 6.1 6.7 6.8 7.5 5.3 6.1 5.7 4.8 4.5 4.9 4.3 4.3
5.1 3.8 2.2 2.3 2.6 2.5 3.2 3.2 3.1 4.0 3.4 3.3 3.6 3.5 3.7 4.3 4.5 5.1 5.4 5.9 6.1 5.0 5.6 5.0 4.5 4.5 3.0 2.9 4.5 5.3 5.9 5.9 6.7 6.9 6.5 4.9 6.6 6.8 6.3 5.8 5.8 5.8 6.3
4.9 3.5 3.3 3.1 2.6 2.2 3.1 3.3 3.1 3.2 2.9 2.6 2.5 2.6 2.9 3.4 3.9 4.5 5.0 5.2 6.0 6.1 5.8 5.9 5.6 3.1 4.6 4.3 4.9 5.4 5.5 6.0 6.4 6.9 7.1 5.3 5.8 6.9 6.2 5.5 6.1 6.2 6.1
5.5 4.2 2.9 2.1 2.1 1.7 2.1 2.5 3.0 2.0 2.3 2.7 2.3 2.3 2.7 3.3 3.2 3.9 4.7 4.3 5.1 5.2 5.7 5.4 5.1 5.3 5.2 4.8 4.8 5.2 5.7 6.0 6.2 6.2 6.4 4.8 4.6 6.3 6.8 6.1 5.8 6.3 6.3
6.0 4.7 3.5 2.7 2.4 2.2 1.9 2.0 2.1 1.9 1.6 2.1 2.3 2.2 2.4 3.0 2.7 2.7 3.6 4.3 4.2 5.1 5.2 5.8 5.4 5.5 5.9 5.3 5.0 4.2 5.4 5.9 6.2 6.2 6.3 6.2 4.5 4.6 6.7 6.5 5.4 5.6 6.8
7.1 5.6 3.2 2.8 2.7 2.3 2.1 2.1 1.5 2.0 1.5 1.4 1.9 2.0 2.0 2.3 2.9 2.4 2.6 3.6 4.3 4.1 4.8 4.8 4.3 4.0 5.8 5.2 5.2 4.4 5.9 6.1 6.2 6.2 6.2 6.3 6.3 4.3 5.1 7.0 5.5 5.3 6.1
7.2 6.0 3.9 3.3 2.4 2.6 2.2 2.6 1.7 1.6 1.6 1.0 0.8 1.4 1.6 2.0 2.0 2.1 2.1 3.1 3.5 3.1 3.3 3.4 3.4 3.9 5.7 6.0 6.1 6.0 6.0 5.8 6.2 6.2 6.3 6.4 6.6 6.9 5.2 5.5 7.0 6.4 5.5
6.7 6.0 4.5 3.6 2.9 2.2 2.4 2.6 2.8 1.8 1.3 0.9 0.2 0.7 1.3 1.7 1.7 1.7 2.2 2.9 3.1 3.8 3.5 3.5 3.5 4.5 4.4 4.6 5.9 6.2 6.0 5.9 6.6 6.4 6.6 6.5 6.6 6.4 7.0 6.3 6.5 6.6 5.3
7.5 6.0 5.9 4.0 3.4 2.8 3.4 3.1 2.9 2.8 2.9 2.4 1.5 1.8 1.2 1.5 1.3 2.0 2.6 2.5 3.1 3.5 3.6 4.0 4.7 4.1 4.9 5.3 5.3 5.7 5.7 5.8 6.3 6.6 6.7 6.5 6.6 6.6 6.5 6.7 6.3 5.3 5.1
2.3 3.3 6.9 6.2 4.5 4.0 4.3 3.4 3.3 2.7 2.4 2.5 3.2 3.0 2.5 2.5 1.6 2.4 2.6 2.4 2.7 3.5 3.3 3.5 4.1 4.1 4.6 4.8 4.6 4.2 4.1 4.5 4.9 5.3 5.9 6.3 6.3 6.4 6.4 6.3 6.5 5.2 4.4
-0.4 -0.5 2.8 4.6 5.3 4.4 4.9 4.3 4.6 4.1 3.6 2.8 2.8 2.6 2.5 2.7 1.8 2.9 2.3 2.0 2.0 2.8 3.4 3.5 3.7 4.2 4.8 4.2 5.3 5.3 6.2 5.6 4.1 5.0 4.4 4.7 5.4 6.0 5.7 5.7 5.1 4.9 5.2
0.9 0.1 0.7 1.2 2.3 4.6 5.0 4.9 3.1 3.9 3.8 3.0 2.3 2.1 1.8 3.1 3.0 2.8 2.7 2.8 1.9 2.6 2.8 3.2 3.6 5.1 5.2 4.7 6.1 7.5 6.5 7.4 5.9 4.9 3.9 4.6 5.0 4.5 4.9 5.8 5.2 4.6 5.3
1.7 1.1 1.1 0.3 0.8 2.0 4.0 5.0 4.2 3.5 3.4 2.9 2.0 1.9 2.0 2.8 3.8 3.4 2.0 2.9 3.2 2.9 3.2 3.3 4.3 5.9 6.6 5.9 5.3 5.5 6.8 7.9 7.9 7.4 5.3 4.5 4.6 5.8 4.3 5.3 5.9 4.8 4.7
3.7 2.8 2.7 1.9 -0.3 -0.8 0.8 4.3 5.5 6.1 6.7 5.5 3.5 2.9 2.0 1.9 2.5 3.0 2.3 2.5 2.9 3.4 3.7 3.4 4.2 6.1 6.3 7.1 6.8 6.0 5.5 6.0 7.0 7.7 7.6 6.9 5.9 5.6 5.2 4.6 6.2 5.1 5.1
4.4 3.4 3.3 1.9 0.1 -0.3 -0.4 0.8 2.0 5.5 6.5 5.4 5.2 4.8 3.8 3.0 2.1 2.0 1.1 1.5 2.2 2.7 3.3 3.3 4.5 5.4 6.1 6.8 7.2 6.8 6.5 6.2 5.7 6.7 6.4 7.3 6.5 6.2 6.0 4.5 4.8 4.9 4.6
Wind_Speed
10 21 23 20 16 14 14 17 20 20 21 22 23 24 24 23 22 22 20 18 17 17 16 14 12 12 10 10 12 11 12 13 14 17 17 18 18 18 16 15 15 18 18
17 24 24 22 19 17 16 16 19 21 22 23 24 23 23 22 22 22 21 19 18 16 15 14 12 12 11 13 14 13 14 16 16 18 18 17 18 17 17 15 15 19 19
19 23 27 23 21 19 18 16 17 21 23 23 24 24 23 22 22 22 22 21 18 16 15 14 13 12 12 13 14 15 15 16 18 18 16 15 16 17 16 16 18 18 19
18 23 25 23 21 20 20 18 16 19 22 24 22 23 23 22 22 21 21 20 19 16 15 13 12 12 11 12 12 13 14 15 18 20 15 14 15 16 17 19 19 19 20
17 23 24 24 21 20 20 19 17 17 18 20 21 21 22 22 22 21 20 20 18 17 15 13 12 11 12 12 13 14 15 15 15 14 14 12 15 17 19 19 20 19 19
15 19 24 23 21 21 19 18 18 18 19 19 20 21 21 22 21 21 20 20 18 17 15 13 12 13 13 13 14 15 15 14 13 12 12 13 11 18 19 20 21 20 21
15 16 22 22 20 21 21 19 18 19 20 19 20 20 20 21 21 20 20 19 20 17 15 14 13 15 15 14 14 15 13 13 11 10 11 12 12 17 17 20 22 19 18
12 12 19 20 19 20 21 20 20 20 20 20 19 19 19 19 20 20 20 20 19 19 18 15 15 15 16 15 14 14 13 12 10 9 9 10 10 7 13 21 21 19 18
10 11 14 19 19 19 20 21 22 21 20 21 20 20 19 19 20 20 20 19 17 19 17 17 16 16 17 17 16 15 13 12 9 8 9 6 17 23 23 11 12 16 18
9 11 13 15 18 19 18 20 21 21 22 22 21 21 21 20 19 19 20 19 18 19 17 17 17 17 17 18 16 14 12 9 7 7 8 12 24 24 20 15 10 10 15
8 11 12 14 15 17 17 18 19 18 20 21 21 20 20 17 18 18 17 19 19 17 18 17 17 17 16 16 15 12 10 7 7 7 7 23 25 23 19 20 16 16 16
14 15 14 14 14 15 14 15 17 18 17 17 18 19 18 17 17 17 16 19 18 18 18 17 17 16 12 10 9 9 7 6 7 7 9 21 24 20 20 21 22 20 19
10 10 13 14 13 13 10 12 11 12 12 13 16 16 16 15 15 14 13 15 14 16 14 14 14 12 9 8 9 10 8 7 6 6 9 22 21 15 16 18 19 19 16
11 13 14 13 13 13 10 8 9 6 10 9 13 16 12 9 11 11 11 13 13 15 13 14 11 9 11 10 9 9 9 8 7 6 7 14 18 17 21 19 18 17 15
15 14 15 14 13 12 13 9 10 7 6 11 12 15 15 10 9 10 11 11 13 13 13 11 10 10 10 10 9 9 8 8 9 8 7 9 15 20 19 19 18 16 16
17 16 15 17 16 14 12 14 10 8 11 11 12 14 16 14 9 7 9 9 10 14 13 12 9 7 7 9 7 8 8 7 8 7 6 7 9 14 20 19 15 16 17
17 17 18 18 17 17 16 13 11 11 13 10 12 17 16 15 13 9 8 9 11 12 13 10 8 8 6 6 7 7 8 9 9 8 7 7 7 11 17 21 24 22 21
18 18 18 16 19 18 17 13 10 9 10 9 11 13 18 17 16 10 6 9 13 11 9 6 6 5 7 7 6 6 6 7 9 9 8 8 7 6 12 20 23 25 21
18 19 20 19 20 20 18 13 12 12 10 9 11 12 17 18 16 10 7 8 13 9 8 8 5 7 6 6 7 6 6 6 7 8 9 9 9 9 9 12 23 26 26
15 18 20 17 19 18 13 11 10 10 11 11 10 12 17 16 16 13 8 8 12 8 8 8 10 7 6 7 6 7 7 6 6 7 8 10 10 10 11 12 13 20 28
1 7 17 16 17 13 12 12 12 12 10 10 11 14 17 19 17 14 10 10 10 9 9 10 7 8 6 6 3 2 4 8 8 7 9 9 10 12 13 13 13 14 20
6 5 3 7 16 15 13 12 10 10 10 10 9 12 17 19 19 14 14 13 13 9 10 11 10 4 5 8 4 2 3 4 6 10 7 8 11 13 13 14 13 14 18
10 9 4 3 4 11 17 11 8 5 4 8 10 10 13 15 17 16 16 13 14 11 10 12 11 13 8 6 11 5 3 6 3 5 10 9 10 6 9 12 14 14 17
12 10 8 6 6 2 6 11 14 11 10 9 9 7 8 15 16 15 14 14 13 10 11 11 11 11 9 8 6 7 6 2 4 4 4 7 8 10 8 8 12 15 18
13 11 9 9 11 10 5 2 9 12 9 9 8 10 11 13 13 14 12 13 12 10 13 11 14 13 9 8 7 4 7 5 6 6 8 4 7 8 8 8 10 13 19
14 14 13 13 14 12 11 10 9 6 9 8 10 10 10 7 8 11 13 13 11 9 11 11 14 16 13 9 9 9 7 5 6 7 7 7 7 6 9 7 9 11 17
Wind_Direction
179 156 158 158 161 163 153 140 132 129 130 136 140 140 141 142 139 135 136 139 135 135 139 139 134 130 131 135 142 136 136 137 138 127 133 133 131 125 121 113 125 119 112
155 156 154 155 161 162 155 146 138 135 134 137 137 140 141 141 138 137 137 135 135 139 141 143 139 137 131 130 140 139 135 137 139 135 134 126 127 129 126 119 124 119 112
156 152 158 154 160 159 155 152 146 140 137 138 137 139 141 140 140 140 138 137 140 140 144 143 143 142 133 131 136 137 136 136 133 128 135 140 136 135 131 125 122 119 116
155 154 161 154 158 156 154 154 152 145 141 137 137 140 142 142 141 144 141 141 140 144 145 146 145 137 128 130 131 132 132 131 133 134 142 146 142 141 139 134 128 124 121
164 158 158 153 157 156 152 153 153 146 142 137 139 143 145 144 146 147 145 142 145 147 150 149 144 135 134 132 131 133 134 134 136 148 145 139 151 155 148 146 135 128 130
165 165 153 152 158 157 153 154 152 151 148 146 146 150 152 149 150 149 148 150 151 151 156 157 145 142 139 136 139 141 140 139 142 151 151 154 164 159 157 150 131 123 121
167 167 160 154 158 158 156 156 157 158 157 155 154 154 156 154 151 151 155 158 155 153 158 155 152 148 141 143 145 141 145 143 149 152 158 168 178 172 161 138 125 120 121
169 163 163 160 162 162 161 160 163 166 163 160 158 159 159 159 154 156 160 161 161 153 151 155 156 147 145 145 147 150 151 152 157 160 168 176 182 162 168 134 124 126 126
165 164 166 176 175 167 166 166 169 170 168 165 163 163 163 163 160 162 162 163 162 152 157 160 156 151 150 151 154 157 159 164 168 172 168 175 110 101 90 86 122 140 142
170 175 173 179 183 181 178 174 175 177 175 171 169 169 169 169 167 167 166 167 165 159 162 165 159 155 156 159 158 163 167 169 183 177 176 140 127 131 129 132 145 165 157
187 190 188 183 184 182 181 185 179 182 181 175 173 173 173 175 178 175 177 173 170 168 166 170 164 160 163 166 171 166 165 190 188 189 171 147 145 144 157 158 170 176 164
201 197 195 191 186 183 184 185 188 188 191 187 183 178 180 181 182 183 184 178 175 173 171 172 167 160 153 162 177 179 189 188 194 194 180 164 161 172 177 184 184 181 176
232 222 209 196 190 185 186 187 183 190 189 190 188 181 182 179 180 179 182 185 182 178 176 175 168 169 173 165 177 198 197 192 201 200 200 187 184 194 173 193 194 182 176
229 210 212 214 198 189 182 189 184 186 193 190 189 185 180 179 181 180 183 186 188 186 182 179 183 177 180 178 181 193 204 210 213 208 216 213 204 200 182 194 197 187 183
221 219 207 205 206 193 188 184 195 185 187 200 192 189 186 187 185 181 186 185 190 189 186 183 184 187 187 180 181 192 207 219 226 224 226 223 224 210 197 196 198 189 185
224 208 200 206 206 199 198 188 189 196 181 193 200 197 193 192 188 187 187 190 188 192 190 191 188 194 196 191 185 191 209 216 227 231 227 228 228 224 207 196 191 194 194
239 213 195 199 203 203 202 197 189 199 194 191 198 201 197 195 197 189 192 193 191 188 189 185 184 198 202 194 199 194 217 226 235 235 238 233 232 235 220 206 186 194 195
245 218 199 192 196 206 201 203 197 193 202 195 190 198 201 201 194 190 194 199 190 178 169 168 173 192 211 207 207 211 215 227 233 232 235 238 239 244 227 222 207 194 196
235 221 208 191 196 202 205 197 205 202 201 199 182 194 201 201 194 188 194 198 188 186 183 183 182 194 201 208 218 219 221 225 235 233 233 234 241 248 249 227 220 199 193
247 225 215 195 195 198 200 195 203 207 213 213 202 197 192 200 192 196 196 185 190 191 188 189 191 187 200 208 217 228 230 229 237 238 243 238 239 245 252 248 226 202 198
261 187 217 202 197 188 193 197 201 210 208 215 220 208 199 200 196 200 200 192 192 196 189 183 182 183 195 183 165 197 223 225 226 235 237 238 234 236 240 238 230 192 203
14 359 128 186 195 194 194 199 204 212 216 214 216 215 207 202 194 200 198 197 193 187 191 184 181 171 193 174 175 168 225 222 221 232 221 222 228 230 227 227 218 204 197
15 3 356 127 171 205 201 197 189 176 205 195 210 212 211 209 205 201 201 203 192 188 195 195 186 201 192 186 208 202 184 235 189 217 226 228 230 221 223 223 221 196 192
6 3 2 44 72 87 227 193 196 203 205 212 208 204 201 213 213 208 196 200 201 193 193 195 188 203 194 191 205 234 246 228 208 222 222 220 215 226 212 223 211 198 195
9 10 19 49 52 40 37 343 202 220 227 219 206 203 200 211 215 209 200 193 191 197 205 193 198 198 203 196 204 183 226 235 243 248 259 219 225 226 216 210 210 203 200
17 20 24 38 39 33 39 40 33 257 219 216 216 215 213 200 193 201 201 196 188 193 208 200 205 203 198 200 199 202 196 207 207 215 233 242 223 222 224 207 203 200 194